Location: Franzen
(48.6167°N, 15.3833°E)
Time: 12:37:19
(UTC+00:00)

Abrixas rocket - Pass Details

Date: 22 April 2021
Orbit: 131 x 135 km, 48.4° (Epoch: 23 April)

Event Time Altitude Azimuth Distance (km) Brightness Sun altitude
Rises 18:57:44 0° 256° (WSW) 1,403 5.7 -9.4°
Reaches altitude 10° 18:59:24 10° 252° (WSW) 679 3.9 -9.6°
Maximum altitude 19:00:52 60° 170° (S) 176 0.1 -9.8°
Enters shadow 19:01:22 32° 102° (ESE) 282 0.9 -9.9°
